Regional Weather Roundup
Issued by NWS

Home | Current Version | Previous Version | Graphics & Text | Print | Product List | Glossary On
Versions: 1 2 3 4 5 6 7 8 9 10 11 12 13 14 15 16 17 18 19 20 21 22 23 24 25 26 27 28 29 30 31 32 33 34 35 36 37 38 39 40 41 42 43 44 45 46 47 48 49 50
000
ASUS45 KCYS 291510
RWRWY

WYOMING REGIONAL WEATHER ROUNDUP
NATIONAL WEATHER SERVICE CHEYENNE WY
900 AM MDT FRI AUG 29 2014

NOTE:  "FAIR" INDICATES FEW OR NO CLOUDS BELOW 12,000 FEET
WITH NO SIGNIFICANT WEATHER AND/OR OBSTRUCTIONS TO VISIBILITY.

WYZ001-291600-
YELLOWSTONE NATIONAL PARK

CITY           SKY/WX    TMP DP  RH WIND       PRES   REMARKS
LK YELLOWSTONE   N/A     51  48  89 CALM      30.31S
W YELLOWSTONE  NOT AVBL

$$
WYZ002>013-054>058-071-098>099-291600-
NORTHERN WYOMING

CITY           SKY/WX    TMP DP  RH WIND       PRES   REMARKS
JACKSON        SUNNY     52  45  76 CALM      30.25R
CODY           SUNNY     55  52  88 NE10      30.15S
GREYBULL       PTSUNNY   63  55  75 N7        30.10F
WORLAND        MOSUNNY   65  50  58 CALM      30.11R
SHERIDAN       CLOUDY    61  55  81 N14       30.11S
BUFFALO        CLOUDY    59  54  83 NW12      30.14R
GILLETTE       PTSUNNY   62  53  72 N12       30.09R
HULETT         FAIR      61  54  77 MISG      30.07
NEWCASTLE      FAIR      66  46  48 N7        30.03

$$
WYZ014>020-022>026-101>103-291600-
CENTRAL WYOMING

CITY           SKY/WX    TMP DP  RH WIND       PRES   REMARKS
BIG PINEY      SUNNY     54  43  66 CALM      30.26S
PINEDALE       SUNNY     52  43  71 CALM      30.27S
DUBOIS         FAIR      54  41  62 NE3       30.26S
LANDER         SUNNY     61  48  62 SE3       30.17S
RIVERTON       MOSUNNY   63  45  51 S6        30.18S
CASPER         MOSUNNY   62  46  55 CALM      30.16R
DOUGLAS        PTSUNNY   61  52  72 W9        30.13F

$$
WYZ021-027>030-104>119-291600-
SOUTHERN WYOMING

CITY           SKY/WX    TMP DP  RH WIND       PRES   REMARKS
EVANSTON       MOSUNNY   56  40  55 S5        30.29R
KEMMERER       MOSUNNY   55  43  62 CALM      30.28S
FORT BRIDGER   FAIR      65  37  34 W8        30.30S
ROCK SPRINGS   SUNNY     60  41  49 W6        30.25S
DIXON          FAIR      56  48  73 SE7       30.28F
RAWLINS        SUNNY     60  45  57 W12       30.25R
SARATOGA       FAIR      59  46  63 SE5       30.27S
LARAMIE        MOSUNNY   54  47  77 SE5       30.25R
CHEYENNE       PTSUNNY   67  44  43 NW22G28   30.15R
TORRINGTON     MOSUNNY   62  54  74 NW6       30.03S
PINE BLUFFS    PTSUNNY   64  50  59 NW16G24   30.10R

$$


USA.gov is the U.S. government's official web portal to all federal, state and local government web resources and services.